Wind_Speed
36 36 35 34 34 34 33 34 35 35 35 35 35 35 35 35 35 35 36 36 35 34 34 34 35 33 31 31 32 32 31 31 31 32 32 31 30 29 29 29 29 29 29
36 35 35 34 34 34 34 33 33 34 34 34 34 34 35 35 35 36 35 35 36 35 35 35 36 34 33 33 33 33 33 32 32 32 32 32 32 31 31 31 31 30 31
35 35 35 34 34 34 34 34 33 34 34 34 34 35 34 34 34 34 35 35 35 36 36 36 36 35 34 34 34 34 34 33 32 32 32 32 32 32 32 32 33 33 33
35 35 35 35 34 34 34 34 34 34 34 34 35 34 34 33 33 34 34 34 34 36 36 36 36 34 33 34 35 35 34 33 33 32 32 33 33 33 33 33 34 35 34
35 36 35 35 34 34 34 35 35 34 34 34 34 34 34 34 33 33 34 35 35 35 36 35 35 34 34 34 35 35 35 35 34 34 34 34 35 35 35 35 35 36 36
35 35 35 35 35 34 34 35 36 36 34 33 33 34 34 34 34 34 34 34 35 35 36 36 35 34 34 34 35 35 35 35 35 35 35 35 36 37 38 37 37 37 38
35 36 36 36 34 33 33 34 35 36 35 33 33 34 34 34 34 34 34 35 36 36 36 36 36 35 35 35 36 35 35 36 37 37 36 37 38 39 39 39 39 39 39
35 36 36 36 35 34 34 34 35 36 35 34 33 34 34 35 35 34 35 35 37 38 37 36 36 36 36 37 37 37 36 36 37 38 38 38 39 40 41 41 41 41 41
36 36 36 36 35 35 35 35 34 35 36 35 35 34 34 35 35 35 34 34 36 38 39 37 37 37 37 38 39 39 39 38 38 39 39 39 41 42 42 42 43 43 43
37 36 35 35 35 35 35 36 35 35 36 36 35 35 35 35 35 36 36 36 36 38 39 40 39 38 38 39 40 40 41 41 40 41 41 41 42 43 43 44 44 44 45
37 36 36 35 35 35 35 35 36 36 36 36 35 35 35 36 36 36 37 37 38 39 40 40 40 40 40 40 40 40 40 41 41 42 43 43 43 44 44 45 45 45 46
37 37 37 36 36 36 36 37 36 36 36 36 36 36 35 36 36 37 38 38 39 39 40 41 41 41 41 42 41 41 42 42 43 44 44 44 45 45 45 46 47 47 48
38 37 36 36 36 37 37 38 38 38 38 38 38 38 37 36 37 37 38 39 40 41 41 41 42 43 43 43 43 43 43 44 44 45 45 45 46 46 47 48 49 49 50
39 38 37 37 38 38 38 38 39 39 39 39 39 38 38 38 38 39 39 39 40 41 42 42 43 44 44 44 44 45 45 45 45 45 46 46 47 47 48 48 50 51 51
38 39 39 39 39 39 39 39 40 41 41 40 40 39 39 39 39 39 39 40 41 42 43 43 44 44 44 44 45 46 46 46 46 47 47 48 48 49 49 50 52 53 53
38 39 39 40 40 40 40 40 40 41 42 41 41 40 40 39 40 40 40 41 42 42 43 43 44 44 44 45 45 46 46 46 47 47 48 49 49 50 50 51 52 53 55
38 39 40 40 41 41 41 40 41 41 42 42 41 41 42 42 41 41 41 42 43 44 44 45 44 44 45 45 46 46 47 47 47 47 48 49 50 51 51 52 53 54 55
39 40 40 40 41 42 42 42 42 42 42 42 42 42 43 43 44 43 44 44 44 44 45 46 46 45 45 45 47 47 47 47 48 48 49 50 50 51 52 53 53 54 54
38 39 40 40 41 42 42 42 42 42 42 42 43 44 44 44 45 45 44 45 45 45 45 45 46 46 46 47 47 47 47 48 49 49 49 50 51 52 52 52 52 54 54
37 38 39 40 40 41 42 42 42 42 43 42 43 43 43 44 44 44 44 45 46 46 45 45 46 47 47 47 48 48 48 49 49 48 49 50 51 52 52 52 53 54 54
36 38 39 40 40 41 42 42 42 42 42 43 44 44 44 44 44 44 44 45 45 45 45 46 46 46 46 47 48 48 48 48 49 49 50 51 51 51 51 52 53 53 54
34 35 37 38 40 41 41 41 41 41 42 42 43 43 44 44 44 44 44 45 45 45 45 45 46 46 46 47 47 47 48 49 49 49 50 50 50 49 50 51 52 52 52
32 33 34 36 37 38 39 41 41 41 41 41 42 42 42 43 42 43 43 44 44 45 45 45 45 45 46 46 47 47 48 48 49 49 49 49 48 49 49 50 50 51 51
29 30 31 32 34 35 37 39 40 41 41 41 40 40 40 41 41 41 41 42 42 43 44 43 44 44 45 46 46 46 46 46 47 47 46 47 47 48 48 49 50 50 50
27 28 29 29 31 33 35 36 38 39 39 39 39 39 39 39 39 39 40 40 41 41 42 43 44 44 45 45 46 46 45 45 45 46 47 47 47 47 48 49 48 49 49
27 27 27 28 29 30 32 34 35 36 37 37 37 37 38 38 39 39 39 40 40 40 40 40 41 42 43 43 44 44 45 45 46 46 45 46 47 48 48 48 47 47 47
Wind_Direction
249 249 248 247 246 246 245 245 244 243 242 244 244 243 242 242 241 238 235 235 236 237 237 238 237 239 241 243 245 248 251 252 254 254 253 256 259 260 263 265 267 269 271
248 248 248 247 246 244 245 244 243 244 242 243 244 243 242 241 238 235 234 235 236 237 238 238 237 239 241 242 246 250 252 252 255 255 256 258 259 260 263 265 267 270 272
248 247 246 245 244 243 244 241 241 241 241 242 243 243 242 241 239 237 236 237 238 238 238 237 236 238 242 244 248 251 252 253 255 257 259 258 258 260 262 265 268 269 273
247 245 244 243 244 244 243 241 240 240 242 242 243 242 243 242 240 237 238 239 239 238 237 236 237 239 242 245 247 250 251 253 255 258 260 260 259 260 262 265 268 269 272
245 243 242 242 243 244 244 241 240 239 241 243 243 243 244 243 243 241 239 239 239 237 236 237 238 239 243 246 247 250 253 254 256 258 260 260 261 262 263 265 268 270 272
245 242 242 243 244 245 245 241 239 239 241 241 241 242 243 243 244 242 240 239 238 238 239 240 240 241 244 247 249 252 254 256 257 259 261 262 262 264 265 265 267 269 272
244 242 241 243 244 244 245 243 239 239 240 241 241 242 242 242 242 241 240 240 240 241 241 240 241 244 245 247 250 252 256 258 259 261 262 262 263 265 266 266 268 269 271
244 243 243 243 243 243 244 242 240 239 239 240 239 239 240 241 241 242 242 242 241 240 240 242 244 246 247 248 251 253 257 260 261 262 263 263 264 265 266 268 269 271 273
244 244 243 242 243 244 244 243 241 241 240 239 240 240 240 241 241 242 242 244 243 241 242 245 248 249 249 250 252 254 257 259 261 262 263 265 266 267 268 269 271 273 274
243 244 244 244 244 244 243 242 241 241 240 239 240 240 240 241 241 242 244 246 245 244 244 247 249 248 249 249 252 254 257 259 261 263 264 266 267 269 270 271 273 274 275
243 243 243 244 243 243 241 241 240 240 240 240 240 240 239 240 242 243 245 245 246 246 247 248 248 247 249 250 252 255 257 259 261 263 265 267 269 270 271 273 275 276 277
241 241 242 243 243 241 240 240 239 240 241 240 240 241 242 243 243 244 245 245 244 245 247 248 247 248 249 251 254 256 259 261 263 265 267 269 270 273 274 275 275 277 279
240 241 241 241 241 240 239 239 239 240 239 240 241 243 244 244 244 245 245 245 245 245 246 248 249 249 249 252 255 257 260 262 264 267 268 269 271 272 274 275 276 277 279
239 238 238 239 239 239 239 240 240 239 240 240 241 243 244 245 245 246 247 246 245 245 246 248 250 250 252 254 256 258 261 263 265 267 268 269 271 273 274 276 277 278 280
239 238 237 238 238 238 238 239 238 239 241 241 242 243 244 245 247 248 249 248 247 247 248 250 252 253 255 257 259 261 263 264 266 268 269 271 272 274 276 277 279 279 280
238 238 237 238 238 238 239 239 239 240 241 241 242 243 244 247 248 249 249 249 250 251 251 252 254 254 257 259 262 263 264 266 268 269 270 272 274 276 277 279 280 281 282
238 238 238 238 238 239 240 239 239 241 241 242 242 243 246 248 249 249 249 250 250 251 252 253 254 255 258 260 262 264 265 267 269 270 271 273 275 276 278 280 281 282 283
238 239 240 239 239 239 239 239 239 241 242 243 244 246 247 248 249 249 250 250 250 252 253 255 256 257 259 262 263 264 266 268 270 271 272 274 276 277 279 281 281 283 283
238 238 239 240 240 240 239 240 240 242 243 244 246 248 249 249 248 250 251 251 252 253 255 256 257 258 260 263 263 264 266 268 269 272 274 275 277 278 280 281 282 283 283
238 239 239 239 240 240 239 241 241 243 244 245 246 248 249 250 250 251 253 254 254 255 256 257 258 259 261 263 264 265 267 269 271 273 275 277 278 280 281 282 283 284 284
241 240 240 241 241 241 241 242 243 245 245 246 247 249 251 252 253 254 254 254 256 257 258 259 260 261 262 264 265 267 268 269 271 273 275 277 279 280 281 282 283 284 286
243 243 243 243 243 242 242 243 245 246 247 248 248 250 252 253 254 255 255 256 257 259 260 260 261 262 263 264 266 267 268 269 271 273 276 278 279 281 282 283 284 286 288
245 245 245 245 245 245 245 245 247 248 249 250 251 252 253 254 254 255 256 257 258 258 260 261 261 262 264 266 267 268 270 271 273 275 277 278 280 281 282 284 286 287 288
247 247 247 246 247 247 247 247 248 249 250 251 252 253 253 253 254 254 255 256 257 258 259 261 262 263 264 265 267 269 271 273 275 276 277 279 281 282 284 286 287 288 289
249 249 247 247 248 248 248 248 249 250 250 251 252 252 253 254 254 254 255 256 257 260 261 262 263 264 265 267 268 271 273 274 276 277 279 280 281 283 285 286 287 288 288
249 251 252 251 251 251 250 250 250 250 250 250 251 252 253 254 255 255 257 258 260 261 262 262 264 266 267 268 270 272 273 275 277 279 280 282 283 284 285 286 286 286 287
Height
5703 5705 5707 5710 5712 5714 5717 5720 5722 5725 5729 5732 5734 5737 5740 5743 5745 5748 5751 5755 5759 5763 5767 5771 5775 5779 5782 5785 5789 5792 5794 5795 5797 5799 5801 5803 5805 5806 5808 5809 5809 5810 5810
5694 5697 5699 5702 5704 5707 5710 5711 5715 5718 5721 5724 5727 5729 5732 5734 5737 5740 5743 5747 5751 5755 5759 5763 5767 5771 5774 5778 5782 5785 5787 5789 5790 5792 5794 5796 5798 5799 5801 5802 5803 5803 5803
5686 5689 5691 5694 5697 5700 5703 5705 5707 5710 5713 5716 5719 5721 5724 5727 5730 5733 5737 5740 5744 5748 5752 5756 5760 5764 5767 5771 5774 5777 5780 5782 5784 5785 5787 5789 5791 5792 5794 5794 5795 5796 5796
5678 5681 5684 5687 5690 5693 5695 5697 5700 5703 5706 5709 5712 5714 5717 5720 5723 5726 5730 5733 5736 5740 5744 5749 5752 5757 5760 5764 5767 5770 5772 5775 5776 5778 5780 5782 5783 5785 5786 5787 5787 5788 5788
5670 5673 5677 5680 5682 5685 5687 5690 5692 5695 5698 5702 5705 5707 5711 5714 5716 5719 5723 5726 5730 5734 5738 5742 5745 5749 5753 5756 5759 5762 5765 5767 5769 5771 5772 5773 5775 5777 5778 5779 5780 5780 5780
5662 5665 5669 5672 5675 5677 5679 5682 5685 5688 5692 5695 5698 5701 5704 5707 5710 5713 5717 5720 5724 5727 5731 5734 5738 5742 5746 5749 5752 5755 5757 5760 5761 5763 5764 5765 5767 5768 5769 5770 5771 5772 5771
5654 5657 5660 5663 5667 5669 5672 5674 5678 5681 5685 5688 5691 5694 5697 5700 5703 5707 5711 5714 5718 5721 5725 5728 5732 5735 5738 5741 5744 5747 5749 5751 5753 5754 5756 5757 5758 5759 5760 5761 5762 5762 5763
5646 5649 5652 5656 5659 5662 5664 5667 5671 5674 5677 5680 5684 5687 5690 5694 5697 5700 5704 5707 5711 5715 5718 5722 5726 5728 5731 5733 5736 5739 5741 5743 5745 5746 5747 5748 5749 5750 5750 5751 5752 5752 5753
5637 5641 5644 5648 5651 5654 5657 5660 5663 5666 5669 5673 5676 5679 5683 5686 5690 5693 5697 5701 5705 5708 5711 5715 5718 5721 5723 5726 5728 5731 5733 5734 5736 5737 5738 5739 5739 5740 5740 5740 5741 5741 5741
5629 5633 5636 5640 5643 5646 5649 5653 5656 5659 5662 5665 5669 5672 5676 5679 5682 5686 5690 5693 5697 5701 5703 5707 5709 5712 5715 5718 5720 5722 5724 5726 5727 5728 5729 5729 5730 5730 5730 5730 5729 5729 5729
5621 5624 5628 5631 5635 5638 5641 5645 5648 5651 5654 5658 5661 5665 5668 5672 5675 5678 5682 5685 5689 5692 5695 5698 5701 5704 5706 5709 5711 5713 5715 5716 5717 5718 5719 5719 5719 5719 5719 5718 5717 5717 5716
5612 5616 5619 5623 5626 5630 5633 5637 5640 5644 5647 5651 5654 5657 5660 5664 5667 5670 5674 5677 5680 5683 5686 5689 5691 5694 5697 5699 5702 5703 5705 5706 5707 5708 5708 5708 5708 5708 5707 5706 5706 5705 5704
5603 5607 5610 5614 5618 5621 5625 5628 5632 5635 5639 5643 5646 5649 5653 5656 5659 5662 5665 5667 5670 5673 5676 5679 5681 5684 5687 5690 5692 5693 5695 5696 5697 5697 5697 5697 5697 5696 5696 5695 5694 5692 5691
5593 5598 5601 5605 5609 5613 5616 5620 5623 5627 5631 5635 5638 5641 5645 5647 5650 5653 5655 5657 5660 5663 5666 5669 5671 5674 5677 5679 5681 5683 5684 5685 5685 5686 5686 5686 5685 5684 5684 5683 5681 5680 5678
5584 5588 5592 5596 5599 5603 5607 5611 5614 5618 5622 5626 5629 5633 5636 5638 5641 5643 5645 5648 5650 5653 5656 5658 5661 5664 5666 5669 5670 5671 5673 5673 5674 5674 5674 5673 5673 5672 5671 5669 5668 5666 5664
5574 5578 5583 5586 5590 5594 5597 5601 5605 5608 5612 5616 5620 5623 5626 5629 5631 5633 5635 5638 5640 5643 5646 5648 5650 5653 5655 5657 5659 5660 5661 5661 5661 5662 5661 5661 5660 5659 5657 5656 5654 5652 5649
5564 5569 5573 5577 5581 5584 5588 5592 5595 5599 5602 5606 5610 5613 5616 5619 5621 5623 5625 5628 5630 5632 5635 5638 5640 5642 5644 5645 5646 5647 5648 5648 5649 5649 5648 5647 5646 5645 5644 5642 5640 5637 5633
5555 5559 5562 5567 5571 5575 5578 5582 5585 5589 5592 5596 5600 5603 5606 5608 5610 5613 5615 5617 5619 5621 5624 5626 5628 5630 5631 5632 5633 5634 5635 5635 5636 5635 5634 5634 5633 5631 5629 5627 5625 5623 5620
5545 5549 5553 5557 5561 5564 5568 5572 5576 5579 5582 5586 5589 5592 5594 5597 5599 5602 5604 5606 5608 5610 5612 5614 5616 5618 5619 5620 5621 5622 5622 5622 5622 5622 5621 5620 5618 5616 5614 5613 5611 5609 5606
5535 5539 5543 5547 5550 5554 5558 5562 5565 5569 5572 5575 5578 5580 5582 5585 5588 5590 5592 5594 5596 5598 5600 5602 5604 5605 5607 5608 5608 5609 5609 5610 5609 5608 5607 5605 5603 5601 5599 5598 5596 5593 5591
5526 5529 5533 5537 5540 5544 5548 5551 5555 5558 5561 5564 5566 5569 5571 5574 5576 5578 5580 5582 5584 5586 5588 5590 5591 5593 5594 5595 5595 5595 5596 5596 5595 5594 5593 5592 5589 5587 5585 5583 5580 5578 5575
5517 5520 5523 5527 5530 5534 5538 5541 5544 5547 5550 5553 5555 5558 5560 5562 5564 5567 5569 5571 5573 5575 5576 5577 5579 5580 5581 5582 5582 5582 5582 5582 5582 5581 5579 5578 5575 5573 5571 5569 5566 5563 5561
5509 5511 5514 5517 5521 5524 5527 5531 5534 5536 5539 5542 5544 5546 5549 5551 5553 5555 5557 5559 5561 5563 5565 5566 5567 5568 5569 5569 5569 5569 5569 5569 5568 5567 5566 5564 5562 5560 5557 5555 5552 5549 5547
5501 5503 5506 5508 5511 5514 5517 5520 5523 5526 5529 5531 5533 5536 5538 5540 5542 5544 5546 5548 5550 5551 5553 5554 5555 5556 5557 5557 5557 5557 5557 5556 5555 5554 5552 5551 5549 5546 5544 5541 5539 5535 5533
5493 5495 5498 5500 5502 5504 5507 5509 5512 5515 5518 5521 5523 5525 5527 5530 5532 5534 5535 5537 5539 5540 5541 5543 5544 5545 5545 5545 5545 5545 5545 5544 5543 5541 5540 5538 5536 5534 5531 5528 5525 5522 5520
5486 5488 5490 5492 5494 5496 5498 5500 5502 5505 5508 5510 5513 5515 5517 5519 5521 5523 5525 5526 5528 5529 5530 5531 5532 5532 5533 5533 5533 5532 5532 5531 5530 5528 5527 5525 5523 5520 5518 5515 5513 5510 5507